Terminal Aerodrome Forecast
Issued by NWS North Platte, NE

Home | Current Version | Previous Version | Text Only | Print | Product List | Glossary On
Versions: 1 2 3 4 5 6 7 8 9 10 11 12 13 14 15 16 17 18 19
000
FTUS43 KLBF 252300
TAFVTN
TAF
KVTN 252320Z 2600/2624 VRB03KT P6SM SCT200
     FM261200 02006KT P6SM BKN050
     FM262000 35013G19KT P6SM FEW070 SCT250=

USA.gov is the U.S. government's official web portal to all federal, state and local government web resources and services.